STARLINK-1418, 45708

Orbit data source: Space-Track

STARLINK-1418, 45708 is a payload satellite owned by SpaceX/Seattle (US) in LEO that was launched on Thu, 04 Jun 2020 UTC via an FALCON 9 launch vehicle from the Air Force Eastern Test Range (AFETR). Payloads include a variety of satellites, spacecraft, and rockets equipped with specific instruments for various scientific and technological missions. These include communications satellites like Starlink; space stations such as the ISS; scientific satellites like the Hubble; Earth observation satellites from companies like Planet Labs, Umbra, and HawkEye 360; GPS; miniature CubeSats for education and research; and military/defense satellites.

Loading next visibility...
STARLINK-1418 details
Identifier
45708, 2020-035BD
Orbit
LEO
Last TLE update16 hours ago
Origin
Flag of USSpaceX/Seattle (US)
ManufacturerSpaceX/Seattle
MissionOperational Commercial Communications
Bus & MotorSTARLINK, Unknown motor
Mass260 kg wet, ~248 kg dry
Launch date (UTC)
2020-06-04 (5 years ago)
Launch vehicle
FALCON 9
Launch site
Air Force Eastern Test Range (AFETR)
Object type
Payload
Rocket body
Debris
Shape & HBRBox + 1 Pan, 8.86 m
Radar Cross Section13.562 m², Large (>1 m²)

Expand to show TLE details & history

TLE from 16 hours ago
0 STARLINK-1418
1 45708U 20035BD  24348.50797839  .00069331  00000-0  45899-2 0  9992
2 45708  53.0536 262.0504 0001407  97.4970 262.6179 15.06705055250740
Epoch: 2024-12-13T12:11Z
Definitive object data (Epoch: 2024-12-13T12:11:29.332Z)
Latitude-0.00004°
Longitude-3.4948°
Altitude547.281 km
Speed7.59 km/s
True Right ascension17h 28m 12s
True Declination0° 00' 00"
Sunlit
Object was in daylight at TLE epoch
Visualization TLE readout
Latitude-19.15189°
Longitude-21.51126°
Altitude551.8 km
Speed7.586 km/s
Apparent Right ascension15h 32m 09s
Apparent Declination-29° 33' 18"
Sunlit
Object is in daylight
Visualization observer readout
Local Sidereal Time02:33:04
Azimuth306.048° NW
Elevation-74.08°
Doppler factor1
Orbital elements
Apogee altitude547.522 km
Perigee altitude545.573 km
Semi-major axis6,924.685 km
Eccentricity0.0001407
Inclination53.0536°
RAAN262.0504°
Arg. of periapsis97.497°
True anomaly262.60191°
Mean anomaly262.6179°
Eccentric anomaly262.60991°
Mean motion3.76655 °/min
BSTAR0.0045899
Orbital period95.58 mins
Loading maneuver chart data...

STARLINK-1418 Visibility forecast

Observer location: undefined°, undefined

Span
Click to sort rows by Start time (UTC) header in descending order
Start Az.
Max El. time (UTC)
Max El. Az.
Max El.
End time (UTC)
End Az.
7 mins2024-12-14 04:38:15.706Z295.507° NW2024-12-14 04:41:15.706Z237.002° WSW35.119°2024-12-14 04:45:15.706Z153.543° SSE
5 mins2024-12-14 20:12:15.706Z177.038° S2024-12-14 20:14:15.706Z125.593° SE28.2°2024-12-14 20:17:15.706Z70.96° E
6 mins2024-12-14 21:51:15.706Z272.132° WNW2024-12-14 21:53:15.706Z319.66° NNW31.286°2024-12-14 21:57:15.706Z37.637° NE
5 mins2024-12-15 02:53:15.706Z339.042° N2024-12-15 02:55:15.706Z32.709° NE31.142°2024-12-15 02:58:15.706Z95.103° ESE
|